Location: Miles
(41.4492°N, 81.6087°W)
Time: 22:36:08
(UTC+00:00)

Explorer 11/Cluster Stage 4 - Pass Details

Date: 17 September 2024
Orbit: 464 x 1208 km, 28.8° (Epoch: 06 October)

Event Time Altitude Azimuth Distance (km) Brightness Sun altitude
Exits shadow 09:49:11 - 195° (SSW) 2,945 9.2 -15.6°
Reaches altitude 10° 09:52:22 10° 169° (S) 2,489 9.1 -15.0°
Maximum altitude 09:54:11 11° 151° (SSE) 2,472 9.3 -14.7°
Drops below altitude 10° 09:56:05 10° 134° (SE) 2,656 9.7 -14.3°
Sets 10:01:13 0° 104° (ESE) 3,809 11.2 -13.4°
